Showing default

METEOR 2-7, 12456

Orbit data source: Space-Track

METEOR 2-7, 12456 is a Commonwealth of Independent States-origin payload satellite in LEO that was launched on Thu, 14 May 1981 UTC via a VOSTOK 8A92M launch vehicle from the Plesetsk Missile And Space Complex (PKMTR). Payload-class satellites include a variety of spacecraft equipped with specific instruments for various scientific and technological missions. These include communications satellites like Starlink; space stations such as the ISS; scientific satellites like the Hubble; Earth observation satellites from companies like Planet Labs, Umbra, and HawkEye 360; GPS; miniature CubeSats for education and research; and military/defense satellites.

Loading next visibility...
Identifier
12456, 1981-043A
Orbit
LEO
Country
Flag of CISCIS
Related business
Manufacturer
VNIIEM
Mission
Spacecraft
Bus & Motor
METEOR-2, Unknown motor
Mass
~1,500 kg wet, ~1,500 kg dry
Launch date (UTC)
1981-05-14 (45 years ago)
Launch vehicle
VOSTOK 8A92M
Launch site
Plesetsk Missile And Space Complex (PKMTR)
Object type
Payload
Rocket body
Debris
Shape & HBR
Unknown
Radar Cross Section
Large (>1 m²)

Expand to show TLE details & history
Last TLE update: 11 hours ago

TLE from 11 hours ago
0 METEOR 2-7
1 12456U 81043A   25355.49689124  .00000072  00000-0  33091-4 0  9996
2 12456  81.2661 271.8928 0046323 275.2024  84.3862 14.11006581293991
Epoch: 2025-12-21T11:55Z
TLE epoch observation values (Epoch: 2025-12-21T11:55:31.403Z)
Latitude
-0°
Longitude
2.70346°
Altitude
855.706 km
Speed
7.426 km/s
True Right ascension
18h 07m 34s
True Declination
0° 00' 00"
Sunlit
Object was in daylight at epoch
Visualization orbit readout
Latitude
Unknown
Longitude
Unknown
Altitude
Unknown
Speed
Unknown
Apparent Right ascension
Unknown
Apparent Declination
Unknown
Sunlit
N/A
Visualization observer readout
Local Sidereal Time
22:18:49
Azimuth
Unknown
Elevation
Unknown
Doppler factor
Unknown
Orbital elements
Apogee altitude
886.598 km
Perigee altitude
819.604 km
Semi-major axis
7,231.238 km
Eccentricity
0.00463
Inclination
81.2661°
RAAN
271.8928°
Arg. of periapsis
275.2024°
True anomaly
84.91477°
Mean anomaly
84.3862°
Eccentric anomaly
84.65046°
Mean motion
3.52959 °/min
Orbital period
101.99 mins
BSTAR
0.000033091
Loading maneuver chart data...
Computing Atmospheric mass density...
Loading historical data...
Loading historical data...
Loading historical data...
Loading historical data...
Loading historical data...
Loading historical data...
Loading historical data...

Documentation

Showing up to 5 results
|